![]() |
EMODnet Physics ERDDAP
Easier access to scientific data |
log in|
Brought to you by EMODnet Physics |
| Dataset Title: | NDBC - Collection of dew point temperature (DEWT) TimeSeries - IN SITU MultiPointTimeSeriesObservation
|
| Institution: | NDBC (Dataset ID: TS_DEWT_NDBC) |
| Information: | Summary
| License
| FGDC
| ISO 19115
| Metadata
| Background
| Subset
| Data Access Form
| Make a graph
|
| Name | Last modified | Size | Description | |
|---|---|---|---|---|
| Parent Directory | - | - | ||
| 42361_TS_DEWT_012008.nc | 02-Jan-2025 00:21 | 429290 | ||
| 42361_TS_DEWT_012010.nc | 02-Jan-2025 00:23 | 429280 | ||
| 42361_TS_DEWT_012012.nc | 02-Jan-2025 00:25 | 429249 | ||
| 42361_TS_DEWT_012014.nc | 02-Jan-2025 00:28 | 429274 | ||
| 42361_TS_DEWT_012015.nc | 19-Jan-2026 03:51 | 429283 | ||
| 42361_TS_DEWT_012016.nc | 19-Jan-2026 03:54 | 429287 | ||
| 42361_TS_DEWT_012017.nc | 19-Jan-2026 03:57 | 429296 | ||
| 42361_TS_DEWT_012018.nc | 19-Jan-2026 03:59 | 429292 | ||
| 42361_TS_DEWT_022008.nc | 02-Jan-2025 00:21 | 429291 | ||
| 42361_TS_DEWT_022009.nc | 02-Jan-2025 00:22 | 429298 | ||
| 42361_TS_DEWT_022010.nc | 02-Jan-2025 00:23 | 429293 | ||
| 42361_TS_DEWT_022012.nc | 02-Jan-2025 00:25 | 429286 | ||
| 42361_TS_DEWT_022014.nc | 02-Jan-2025 00:28 | 429294 | ||
| 42361_TS_DEWT_022015.nc | 19-Jan-2026 03:51 | 429294 | ||
| 42361_TS_DEWT_022016.nc | 19-Jan-2026 03:54 | 448364 | ||
| 42361_TS_DEWT_022018.nc | 19-Jan-2026 04:00 | 429289 | ||
| 42361_TS_DEWT_032008.nc | 02-Jan-2025 00:21 | 450157 | ||
| 42361_TS_DEWT_032009.nc | 02-Jan-2025 00:22 | 449574 | ||
| 42361_TS_DEWT_032010.nc | 02-Jan-2025 00:23 | 429494 | ||
| 42361_TS_DEWT_032012.nc | 02-Jan-2025 00:25 | 449607 | ||
| 42361_TS_DEWT_032013.nc | 02-Jan-2025 00:27 | 432885 | ||
| 42361_TS_DEWT_032014.nc | 02-Jan-2025 00:28 | 450327 | ||
| 42361_TS_DEWT_032015.nc | 19-Jan-2026 03:51 | 450099 | ||
| 42361_TS_DEWT_032016.nc | 19-Jan-2026 03:54 | 449435 | ||
| 42361_TS_DEWT_032017.nc | 19-Jan-2026 03:57 | 449441 | ||
| 42361_TS_DEWT_032018.nc | 19-Jan-2026 04:00 | 449947 | ||
| 42361_TS_DEWT_042008.nc | 02-Jan-2025 00:21 | 449108 | ||
| 42361_TS_DEWT_042009.nc | 02-Jan-2025 00:22 | 437227 | ||
| 42361_TS_DEWT_042010.nc | 02-Jan-2025 00:23 | 448726 | ||
| 42361_TS_DEWT_042012.nc | 02-Jan-2025 00:25 | 429489 | ||
| 42361_TS_DEWT_042013.nc | 02-Jan-2025 00:27 | 449366 | ||
| 42361_TS_DEWT_042014.nc | 02-Jan-2025 00:28 | 450227 | ||
| 42361_TS_DEWT_042015.nc | 19-Jan-2026 03:52 | 448807 | ||
| 42361_TS_DEWT_042016.nc | 19-Jan-2026 03:55 | 450377 | ||
| 42361_TS_DEWT_042018.nc | 19-Jan-2026 04:00 | 429494 | ||
| 42361_TS_DEWT_052008.nc | 02-Jan-2025 00:21 | 429493 | ||
| 42361_TS_DEWT_052009.nc | 02-Jan-2025 00:22 | 429599 | ||
| 42361_TS_DEWT_052010.nc | 02-Jan-2025 00:23 | 429611 | ||
| 42361_TS_DEWT_052011.nc | 02-Jan-2025 00:24 | 429538 | ||
| 42361_TS_DEWT_052012.nc | 02-Jan-2025 00:25 | 429618 | ||
| 42361_TS_DEWT_052013.nc | 02-Jan-2025 00:27 | 429574 | ||
| 42361_TS_DEWT_052014.nc | 02-Jan-2025 00:28 | 429613 | ||
| 42361_TS_DEWT_052015.nc | 19-Jan-2026 03:52 | 429620 | ||
| 42361_TS_DEWT_052016.nc | 19-Jan-2026 03:55 | 429611 | ||
| 42361_TS_DEWT_052017.nc | 19-Jan-2026 03:57 | 429575 | ||
| 42361_TS_DEWT_052018.nc | 19-Jan-2026 04:00 | 429620 | ||
| 42361_TS_DEWT_062008.nc | 02-Jan-2025 00:21 | 429613 | ||
| 42361_TS_DEWT_062009.nc | 02-Jan-2025 00:22 | 429612 | ||
| 42361_TS_DEWT_062010.nc | 02-Jan-2025 00:23 | 429623 | ||
| 42361_TS_DEWT_062011.nc | 02-Jan-2025 00:24 | 429624 | ||
| 42361_TS_DEWT_062012.nc | 02-Jan-2025 00:26 | 429613 | ||
| 42361_TS_DEWT_062013.nc | 02-Jan-2025 00:27 | 429618 | ||
| 42361_TS_DEWT_062014.nc | 02-Jan-2025 00:28 | 450809 | ||
| 42361_TS_DEWT_062015.nc | 19-Jan-2026 03:52 | 434628 | ||
| 42361_TS_DEWT_062016.nc | 19-Jan-2026 03:55 | 450817 | ||
| 42361_TS_DEWT_062017.nc | 19-Jan-2026 03:58 | 450691 | ||
| 42361_TS_DEWT_062018.nc | 19-Jan-2026 04:01 | 429833 | ||
| 42361_TS_DEWT_072005.nc | 02-Jan-2025 00:20 | 450772 | ||
| 42361_TS_DEWT_072008.nc | 02-Jan-2025 00:21 | 451608 | ||
| 42361_TS_DEWT_072009.nc | 02-Jan-2025 00:22 | 451510 | ||
| 42361_TS_DEWT_072011.nc | 02-Jan-2025 00:24 | 449857 | ||
| 42361_TS_DEWT_072012.nc | 02-Jan-2025 00:26 | 449880 | ||
| 42361_TS_DEWT_072013.nc | 02-Jan-2025 00:27 | 449880 | ||
| 42361_TS_DEWT_072014.nc | 02-Jan-2025 00:29 | 450190 | ||
| 42361_TS_DEWT_072015.nc | 19-Jan-2026 03:52 | 449379 | ||
| 42361_TS_DEWT_072016.nc | 19-Jan-2026 03:55 | 428599 | ||
| 42361_TS_DEWT_072017.nc | 19-Jan-2026 03:58 | 443010 | ||
| 42361_TS_DEWT_082005.nc | 02-Jan-2025 00:20 | 429836 | ||
| 42361_TS_DEWT_082008.nc | 02-Jan-2025 00:21 | 449709 | ||
| 42361_TS_DEWT_082009.nc | 02-Jan-2025 00:22 | 450404 | ||
| 42361_TS_DEWT_082011.nc | 02-Jan-2025 00:24 | 450704 | ||
| 42361_TS_DEWT_082012.nc | 02-Jan-2025 00:26 | 448200 | ||
| 42361_TS_DEWT_082013.nc | 02-Jan-2025 00:27 | 429834 | ||
| 42361_TS_DEWT_082015.nc | 19-Jan-2026 03:53 | 429840 | ||
| 42361_TS_DEWT_082016.nc | 19-Jan-2026 03:55 | 429587 | ||
| 42361_TS_DEWT_082017.nc | 19-Jan-2026 03:58 | 429621 | ||
| 42361_TS_DEWT_092005.nc | 02-Jan-2025 00:20 | 429571 | ||
| 42361_TS_DEWT_092008.nc | 02-Jan-2025 00:22 | 429617 | ||
| 42361_TS_DEWT_092009.nc | 02-Jan-2025 00:22 | 429618 | ||
| 42361_TS_DEWT_092011.nc | 02-Jan-2025 00:25 | 429614 | ||
| 42361_TS_DEWT_092012.nc | 02-Jan-2025 00:26 | 429603 | ||
| 42361_TS_DEWT_092013.nc | 02-Jan-2025 00:27 | 429622 | ||
| 42361_TS_DEWT_092014.nc | 19-Jan-2026 03:50 | 429611 | ||
| 42361_TS_DEWT_092015.nc | 19-Jan-2026 03:53 | 429612 | ||
| 42361_TS_DEWT_092016.nc | 19-Jan-2026 03:56 | 429619 | ||
| 42361_TS_DEWT_092017.nc | 19-Jan-2026 03:59 | 429615 | ||
| 42361_TS_DEWT_102009.nc | 02-Jan-2025 00:23 | 429612 | ||
| 42361_TS_DEWT_102010.nc | 02-Jan-2025 00:24 | 429623 | ||
| 42361_TS_DEWT_102011.nc | 02-Jan-2025 00:25 | 429617 | ||
| 42361_TS_DEWT_102012.nc | 02-Jan-2025 00:26 | 429614 | ||
| 42361_TS_DEWT_102013.nc | 02-Jan-2025 00:27 | 449875 | ||
| 42361_TS_DEWT_102015.nc | 19-Jan-2026 03:53 | 445489 | ||
| 42361_TS_DEWT_102016.nc | 19-Jan-2026 03:56 | 451164 | ||
| 42361_TS_DEWT_102017.nc | 19-Jan-2026 03:59 | 450893 | ||
| 42361_TS_DEWT_112007.nc | 02-Jan-2025 00:20 | 429837 | ||
| 42361_TS_DEWT_112009.nc | 02-Jan-2025 00:23 | 450807 | ||
| 42361_TS_DEWT_112010.nc | 02-Jan-2025 00:24 | 451395 | ||
| 42361_TS_DEWT_112011.nc | 02-Jan-2025 00:25 | 450817 | ||
| 42361_TS_DEWT_112012.nc | 02-Jan-2025 00:26 | 450406 | ||
| 42361_TS_DEWT_112013.nc | 02-Jan-2025 00:28 | 450486 | ||
| 42361_TS_DEWT_112015.nc | 19-Jan-2026 03:53 | 450238 | ||
| 42361_TS_DEWT_112016.nc | 19-Jan-2026 03:56 | 450018 | ||
| 42361_TS_DEWT_112017.nc | 19-Jan-2026 03:59 | 449583 | ||
| 42361_TS_DEWT_122005.nc | 02-Jan-2025 00:20 | 426404 | ||
| 42361_TS_DEWT_122007.nc | 02-Jan-2025 00:21 | 450386 | ||
| 42361_TS_DEWT_122009.nc | 02-Jan-2025 00:23 | 429839 | ||
| 42361_TS_DEWT_122011.nc | 02-Jan-2025 00:25 | 418795 | ||
| 42361_TS_DEWT_122012.nc | 02-Jan-2025 00:26 | 450191 | ||
| 42361_TS_DEWT_122013.nc | 02-Jan-2025 00:28 | 450386 | ||
| 42361_TS_DEWT_122014.nc | 19-Jan-2026 03:51 | 450587 | ||
| 42361_TS_DEWT_122015.nc | 19-Jan-2026 03:54 | 429838 | ||
| 42361_TS_DEWT_122016.nc | 19-Jan-2026 03:56 | 429846 | ||